Location: Seasalter
(51.3333°N, 1.0167°E)
Time: 10:30:44
(UTC+00:00)

Cosmos-2242 - Pass Details

Date: 26 September 2023
Orbit: 583 x 608 km, 82.5° (Epoch: 09 December)

Event Time Altitude Azimuth Distance (km) Brightness Sun altitude
Exits shadow 02:45:07 45° 22° (NNE) 801 3.9 -27.5°
Drops below altitude 10° 02:48:08 10° 13° (NNE) 1,916 6.2 -27.1°
Sets 02:50:20 0° 12° (NNE) 2,822 7.1 -26.8°
